Location: Cheb
(50.0670°N, 12.3670°E)
Time: 15:49:52
(UTC+01:00)

ISS - Visible Passes

Search period start: 21 November 2019 00:00
Search period end: 01 December 2019 00:00
Orbit: 412 x 421 km, 51.6° (Epoch: 22 November)

Date Brightness Start Highest point End Pass type
(mag) Time Alt. Az. Time Alt. Az. Time Alt. Az.
22 Nov -1.5 18:28:41 10° SSW 18:29:53 16° S 18:29:53 16° S visible
23 Nov -1.6 17:41:17 10° S 17:43:02 14° SE 17:43:39 13° SE visible
23 Nov -0.8 19:15:56 10° SW 19:16:34 15° SW 19:16:34 15° SW visible
24 Nov -2.7 18:27:43 10° SW 18:30:15 36° S 18:30:15 36° S visible
25 Nov -2.5 17:39:39 10° SSW 17:42:34 28° SE 17:43:51 21° ESE visible
25 Nov -1.0 19:15:43 10° WSW 19:16:46 19° WSW 19:16:46 19° WSW visible
26 Nov -1.8 16:51:50 10° S 16:54:18 19° SE 16:56:46 10° E visible
26 Nov -3.6 18:27:18 10° WSW 18:30:19 66° SSW 18:30:19 66° SSW visible
27 Nov -3.4 17:38:57 10° SW 17:42:13 54° SSE 17:43:49 27° E visible
27 Nov -1.0 19:15:37 10° W 19:16:43 19° W 19:16:43 19° W visible
28 Nov -2.8 16:50:43 10° SW 16:53:50 38° SSE 16:57:00 10° E visible
28 Nov -3.6 18:27:07 10° W 18:30:11 68° WNW 18:30:11 68° WNW visible
29 Nov -3.8 17:38:37 10° WSW 17:41:59 89° N 17:43:37 28° ENE visible
29 Nov -0.9 19:15:30 10° W 19:16:30 18° WNW 19:16:30 18° WNW visible
30 Nov -3.6 16:50:10 10° WSW 16:53:30 71° SSE 16:56:51 10° ENE visible
30 Nov -3.3 18:26:58 10° W 18:29:56 57° NW 18:29:56 57° NW visible
